Hourly Data Report for August 05, 2020

ALGONQUIN PARK EAST GATE
ONTARIO
Current Station Operator: ECCC - MSC

45°32'00.000" N
78°16'00.000" W
397.00 m
6080192
71581
TNK

Download Data

Hourly Data (August 2020)
Hourly Data Report for August 5, 2020
TIME
LST
Temp Definition
°C
Dew Point Definition
°C
Rel Hum Definition
%
Precip. Amount Definition
mm

Wind Dir Definition
10's deg

Wind Spd Definition
km/h
Visibility Definition
km
Stn Press Definition
kPa
Hmdx Definition


Wind Chill Definition


Weather Definition


00:00 15.7 14.5 93 1.0 29 1   96.39     LegendNANA
01:00 15.4 14.1 92 1.4   0   96.34     LegendNANA
02:00 15.2 14.0 93 0.0   0   96.33     LegendNANA
03:00 15.1 13.8 92 0.0   0   96.32     LegendNANA
04:00 14.5 13.3 93 1.3 25 4   96.38     LegendNANA
05:00 13.8 12.6 92 0.2 26 6   96.43     LegendNANA
06:00 13.8 12.5 92 0.0 26 5   96.53     LegendNANA
07:00 13.5 12.0 90 0.0 27 6   96.58     LegendNANA
08:00 13.6 11.7 88 0.0 30 4   96.67     LegendNANA
09:00 14.7 11.4 81 0.0 27 6   96.70     LegendNANA
10:00 16.0 10.1 68 0.0 27 6   96.74     LegendNANA
11:00 17.2 9.5 61 0.0 27 6   96.75     LegendNANA
12:00 18.4 9.5 56 0.0 25 7   96.73     LegendNANA
13:00
14:00 19.5 7.5 46 0.0 25 9   96.76     LegendNANA
15:00 19.6 8.1 47 0.0 27 7   96.79     LegendNANA
16:00 19.4 8.7 50 0.0 26 7   96.80     LegendNANA
17:00 18.9 8.7 52 0.0 27 8   96.83     LegendNANA
18:00 17.9 8.1 53 0.0 28 6   96.85     LegendNANA
19:00 16.4 9.7 65 0.0 27 5   96.91     LegendNANA
20:00 14.6 9.7 72 0.0 26 4   96.95     LegendNANA
21:00 13.4 10.0 80 0.0 24 2   97.00     LegendNANA
22:00 11.9 9.4 85 0.0 0 1   97.02     LegendNANA
23:00 11.0 9.3 89 0.0   0   97.07     LegendNANA

Notes on Data Quality.

Legend

  • E = Estimated
  • M = Missing
  • NA = Not Available*
  • [empty] = Indicates an unobserved value
Date modified: